{"data":{"norad_id":52365,"epoch":"2026-05-24T21:39:55.680192Z","epoch_age_seconds":76651,"freshness":"FRESH","line1":"1 52365U 22045AL  26144.90272778 -.00000243  00000+0  28204-5 0  9993","line2":"2 52365  53.2138 206.9871 0001016  86.2354 273.8754 15.08837593227426","mean_motion":15.08837593,"eccentricity":0.0001016,"inclination_deg":53.2138,"raan_deg":206.9871,"arg_perigee_deg":86.2354,"mean_anomaly_deg":273.8754,"bstar":2.8204e-6,"rev_number":22742,"period_min":95.437706926222,"perigee_km":539.04788881493,"apogee_km":540.45360360496,"semimajor_km":6917.8877462099,"source":"CELESTRAK","updated_at":"2026-05-25T13:38:17.119445Z"}}